Powrót do katalogu

CZ-6A DEB

AktywnySSO
NORAD 54306·DEBRIS·🇨🇳 China

Wystrzelony Nov 11, 2022 z Taiyuan Satellite Launch Center

Loading…

Następne Przeloty (najbliższe 24 godziny)

TLE

ŚwieżeSource: Space-Track

Epoka: Sep 14, 2026, 06:49 UTC

1 54306U 22151AZ  26257.28458234  .00000240  00000-0  15440-3 0  9990
2 54306  98.8401 258.7033 0040853  75.0477 285.5212 14.11725738197166

Śledź CZ-6A DEB w czasie rzeczywistym z AllMySat

Download on the App Store